[[{"header":{"parameterUnit":"m.s-1","parameterCategory":1,"la1":30.2991,"la2":30.254,"lo1":-89.0895,"lo2":-89.0444,"dy":0.0017,"dx":0.0017,"nx":28,"ny":28,"refTime":"2025-01-16T03:00:00:Z","depth":0,"parameterNumber":2,"parameterNumberName":"U-component_of_WINDS"},"data":[0,0,0,0,0,0,0,0,0,0,0,0,0,0,0,0,0,0,0,0,0,0,0,0,0,0,0,0,0,0,0,0,0,0,0,0,0,0,0,0,0,0,0,0,0,0,0,0,0,0,0,0,0,0,0,0,0,0,-2.5236,-2.5235,0,-2.5183,-2.5182,-2.5182,-2.5025,-2.5021,-2.5018,-2.5015,-2.4965,-2.4967,-2.4968,0,0,0,0,0,0,0,0,0,0,0,0,0,-2.5205,-2.5206,-2.5236,-2.5235,-2.5235,-2.5183,-2.5182,-2.5182,-2.5025,-2.5021,-2.5017,-2.5013,-2.4964,-2.4966,-2.4969,0,0,0,0,0,0,0,0,0,0,0,0,0,-2.5192,-2.5207,-2.5236,-2.515,-2.5142,-2.5183,-2.5182,-2.5182,-2.5026,-2.5021,-2.5016,-2.5011,-2.4963,-2.4966,-2.4969,-2.509,0,0,-2.4978,-2.4979,0,0,0,0,0,0,0,0,-2.5193,-2.5193,-2.5164,-2.5156,-2.5147,-2.5105,-2.5153,-2.5151,-2.5028,-2.5071,-2.5015,-2.5009,-2.5016,-2.5014,-2.5016,-2.5088,-2.5086,-2.4978,-2.498,-2.4981,-2.4982,0,0,0,0,0,0,0,-2.5194,-2.5195,-2.5215,-2.5163,-2.5153,-2.5116,-2.5108,-2.5152,-2.5073,-2.5066,-2.5055,-2.505,-2.501,-2.5013,-2.5013,-2.5085,-2.4978,-2.498,-2.4982,-2.4983,-2.5255,-2.5261,0,0,0,0,0,0,-2.5207,-2.5197,-2.5217,-2.5213,-2.5158,-2.512,-2.5112,-2.5124,-2.5072,-2.5059,-2.5055,-2.5043,-2.5011,-2.501,-2.5011,-2.5151,-2.4981,-2.4983,-2.4985,-2.525,-2.5257,-2.5263,0,0,0,0,0,0,-2.5207,-2.521,-2.5219,-2.5202,-2.52,-2.5126,-2.5141,-2.5126,-2.5128,-2.5063,-2.5049,-2.5072,-2.5007,-2.5007,-2.5072,-2.5147,-2.4985,-2.4987,-2.5243,-2.5252,-2.526,-2.5432,0,0,0,0,0,0,-2.5206,-2.5211,-2.5256,-2.5204,-2.5202,-2.528,-2.5146,-2.5128,-2.5133,-2.5118,-2.5076,-2.5064,-2.5003,-2.5068,-2.5075,-2.5148,-2.499,-2.5236,-2.5247,-2.5257,-2.5419,-2.5445,-2.5467,0,0,0,0,0,-2.5206,-2.5307,-2.5259,-2.5262,-2.5256,-2.5285,-2.5283,-2.521,-2.514,-2.5185,-2.5143,-2.5065,-2.5137,-2.5076,-2.5082,-2.5158,-2.5231,-2.5244,-2.5256,-2.5408,-2.544,-2.5466,0,0,0,0,0,0,-2.5371,-2.5298,-2.5244,-2.5331,-2.5315,-2.5258,-2.5312,-2.5245,-2.525,-2.5235,-2.5145,-2.5137,-2.5215,-2.5192,-2.5125,-2.5273,-2.5171,-2.5186,-2.5285,-2.5315,-2.5338,-2.5343,-2.4992,0,0,0,0,0,-2.5417,-2.5445,-2.5381,-2.5464,-2.5458,-2.5387,-2.5397,-2.5342,-2.5322,-2.5315,-2.5277,-2.5263,-2.5281,-2.5296,-2.531,-2.5414,-2.5404,-2.5469,-2.5493,-2.5513,-2.5527,-2.5582,-2.5611,-2.5303,-2.5303,-2.5303,0,0,-2.5513,-2.5477,-2.5501,-2.5496,-2.5477,-2.551,-2.5383,-2.5422,-2.5447,-2.5321,-2.538,-2.5353,-2.533,-2.5415,-2.5451,-2.5399,-2.5609,-2.5529,-2.5545,-2.5548,-2.5598,-2.5627,-2.5653,-2.5312,-2.531,-2.5309,0,0,-2.5706,-2.568,-2.5747,-2.5731,-2.5703,-2.5655,-2.5671,-2.5624,-2.5601,-2.5658,-2.5565,-2.5592,-2.5627,-2.5615,-2.5613,-2.5801,-2.5731,-2.5808,-2.5935,-2.599,-2.6014,-2.6035,-2.6105,-2.613,-2.5822,-2.5823,-2.5823,0,-2.583,-2.5874,-2.5791,-2.5837,-2.5838,-2.5724,-2.5793,-2.5781,-2.576,-2.5764,-2.5705,-2.5747,-2.5723,-2.5805,-2.5851,-2.5852,-2.587,-2.5814,-2.6017,-2.6037,-2.6056,-2.6121,-2.6147,-2.5832,-2.5831,-2.583,-2.5829,0,-2.6029,-2.6061,-2.6119,-2.6101,-2.6108,-2.6165,-2.6092,-2.6109,-2.6053,-2.6012,-2.6073,-2.604,-2.6046,-2.6061,-2.6007,-2.6136,-2.6104,-2.6033,-2.593,-2.6096,-2.6156,-2.618,-2.5846,-2.5843,-2.584,-2.5837,0,0,-2.6326,-2.626,-2.6283,-2.6274,-2.6234,-2.6259,-2.6311,-2.6315,-2.6333,-2.6322,-2.6366,-2.6397,-2.633,-2.6329,-2.6272,-2.632,-2.6474,-2.6242,-2.624,-2.6289,-2.6617,-2.6674,-2.6704,-2.6425,-2.643,-2.6433,-2.662,0,-2.6511,-2.6595,-2.6522,-2.6621,-2.6651,-2.6543,-2.6588,-2.657,-2.6533,-2.6554,-2.6512,-2.6537,-2.6446,-2.6445,-2.6487,-2.6446,-2.6539,-2.6431,-2.6467,-2.647,-2.648,-2.6734,-2.6794,-2.6972,-2.6642,-2.6646,-2.6649,0,-2.6738,-2.6736,-2.6839,-2.6793,-2.6803,-2.6845,-2.6844,-2.6865,-2.6842,-2.6812,-2.681,-2.674,-2.679,-2.6687,-2.6755,-2.6684,-2.6694,-2.6676,-2.6681,-2.6684,-2.6572,-2.6747,-2.7026,-2.7054,-2.6685,-2.6682,-2.6679,0,-2.6948,-2.6971,-2.7035,-2.703,-2.6978,-2.7011,-2.6991,-2.6963,-2.6971,-2.697,-2.6975,-2.698,-2.6984,-2.699,-2.6925,-2.6855,-2.7003,-2.6894,-2.6981,-2.6983,-2.7019,-2.7019,-2.7307,-2.7022,-2.7021,-2.7021,-2.702,0,-2.7163,-2.7231,-2.7129,-2.717,-2.7242,-2.7157,-2.7232,-2.7201,-2.7177,-2.721,-2.7116,-2.715,-2.7059,-2.7084,-2.7033,-2.7099,-2.71,-2.7079,-2.7065,-2.7089,-2.7093,-2.7097,-2.7084,-2.7028,-2.7026,-2.7025,-2.7023,0,-2.7411,-2.7346,-2.7409,-2.7354,-2.7342,-2.7399,-2.7352,-2.7388,-2.7343,-2.7387,-2.7392,-2.7324,-2.7348,-2.7282,-2.7296,-2.7261,-2.7358,-2.7322,-2.7366,-2.7356,-2.7449,-2.7442,-2.7752,-2.779,-2.7478,-2.7481,-2.7484,0,-2.7555,-2.7604,-2.7554,-2.7569,-2.7554,-2.7579,-2.7586,-2.7504,-2.7515,-2.7493,-2.7533,-2.7548,-2.7557,-2.7601,-2.7554,-2.7565,-2.7531,-2.7639,-2.7532,-2.7556,-2.7536,-2.7535,-2.7541,-2.7662,-2.7666,-2.7669,-2.7672,0,-2.7817,-2.7782,-2.7795,-2.7797,-2.7808,-2.7806,-2.7798,-2.7816,-2.7728,-2.7746,-2.7769,-2.7776,-2.779,-2.7808,-2.7808,-2.7789,-2.7718,-2.7705,-2.7726,-2.7753,-2.7778,-2.7769,-2.7429,-2.7699,-2.7696,-2.7694,-2.7693,-2.7692,-2.8018,-2.8058,-2.8029,-2.8047,-2.8032,-2.8026,-2.8058,-2.8016,-2.8034,-2.8038,-2.7988,-2.8023,-2.7999,-2.7992,-2.798,-2.8007,-2.7958,-2.7988,-2.7996,-2.8006,-2.8023,-2.7771,-2.8006,-2.8005,-2.8005,-2.8004,-2.8003,0,-2.8278,-2.8254,-2.8271,-2.8262,-2.8277,-2.8205,-2.8192,-2.821,-2.8241,-2.8224,-2.8234,-2.8262,-2.8279,-2.8232,-2.8243,-2.8274,-2.8241,-2.828,-2.8278,-2.8275,-2.8064,-2.8046,-2.8306,-2.8306,-2.8306,-2.8306,-2.8305,-2.8305,-2.8415,-2.8479,-2.844,-2.8496,-2.8471,-2.8502,-2.8502,-2.8497,-2.8483,-2.8518,-2.8531,-2.85,-2.8472,-2.848,-2.8493,-2.8479,-2.8489,-2.8539,-2.8515,-2.8319,-2.829,-2.8262,-2.8245,-2.8541,-2.8542,-2.8723,-2.8725,-2.8726]},{"header":{"parameterUnit":"m.s-1","parameterCategory":1,"la1":30.2991,"la2":30.254,"lo1":-89.0895,"lo2":-89.0444,"dy":0.0017,"dx":0.0017,"nx":28,"ny":28,"refTime":"2025-01-16T03:00:00:Z","depth":0,"parameterNumber":3,"parameterNumberName":"V-component_of_WINDS"},"data":[0,0,0,0,0,0,0,0,0,0,0,0,0,0,0,0,0,0,0,0,0,0,0,0,0,0,0,0,0,0,0,0,0,0,0,0,0,0,0,0,0,0,0,0,0,0,0,0,0,0,0,0,0,0,0,0,0,0,-2.2889,-2.2889,0,-2.2893,-2.2893,-2.2893,-2.2754,-2.2751,-2.2747,-2.2743,-2.2752,-2.2756,-2.2759,0,0,0,0,0,0,0,0,0,0,0,0,0,-2.2766,-2.2769,-2.2889,-2.2889,-2.2889,-2.2893,-2.2893,-2.2893,-2.2755,-2.2751,-2.2746,-2.2742,-2.2751,-2.2755,-2.276,0,0,0,0,0,0,0,0,0,0,0,0,0,-2.28,-2.277,-2.2889,-2.2821,-2.2814,-2.2893,-2.2893,-2.2893,-2.2756,-2.275,-2.2745,-2.274,-2.2749,-2.2755,-2.276,-2.2906,0,0,-2.2777,-2.278,0,0,0,0,0,0,0,0,-2.2798,-2.2805,-2.2831,-2.2825,-2.2819,-2.2817,-2.2853,-2.2897,-2.2757,-2.2778,-2.2743,-2.2737,-2.2779,-2.2781,-2.2794,-2.2906,-2.2906,-2.2778,-2.2781,-2.2783,-2.2785,0,0,0,0,0,0,0,-2.2796,-2.2804,-2.2891,-2.2831,-2.2824,-2.2791,-2.279,-2.2861,-2.281,-2.2776,-2.2766,-2.2768,-2.2774,-2.279,-2.2794,-2.2907,-2.2778,-2.2782,-2.2786,-2.2788,-2.3139,-2.3145,0,0,0,0,0,0,-2.2803,-2.2803,-2.289,-2.2891,-2.2794,-2.2798,-2.2796,-2.2824,-2.2809,-2.2801,-2.2773,-2.2762,-2.2783,-2.2787,-2.2793,-2.2964,-2.2783,-2.2789,-2.2792,-2.3133,-2.314,-2.3147,0,0,0,0,0,0,-2.28,-2.2812,-2.289,-2.2844,-2.2851,-2.2806,-2.2838,-2.2827,-2.2841,-2.2806,-2.2797,-2.2798,-2.2779,-2.2786,-2.2879,-2.2962,-2.2791,-2.2796,-2.3126,-2.3135,-2.3144,-2.3306,0,0,0,0,0,0,-2.2798,-2.2812,-2.2866,-2.2846,-2.2854,-2.2975,-2.2843,-2.2831,-2.2851,-2.2836,-2.2827,-2.282,-2.2775,-2.2871,-2.2884,-2.2967,-2.28,-2.3118,-2.313,-2.3141,-2.3293,-2.332,-2.3342,0,0,0,0,0,-2.2794,-2.2912,-2.2869,-2.2881,-2.2921,-2.298,-2.2985,-2.2929,-2.2858,-2.2913,-2.289,-2.282,-2.2951,-2.2882,-2.2895,-2.2981,-2.3113,-2.3127,-2.314,-2.3282,-2.3315,-2.3342,0,0,0,0,0,0,-2.2944,-2.2908,-2.286,-2.2975,-2.2982,-2.2956,-2.3024,-2.2965,-2.2993,-2.2978,-2.2909,-2.2908,-2.3013,-2.3006,-2.293,-2.3122,-2.3019,-2.3036,-2.3123,-2.3153,-2.3177,-2.3178,-2.2805,0,0,0,0,0,-2.299,-2.304,-2.3006,-2.3111,-2.3117,-2.307,-2.3094,-2.305,-2.3055,-2.3057,-2.3041,-2.3049,-2.3092,-2.3122,-2.3159,-2.3291,-2.3288,-2.3356,-2.3381,-2.3401,-2.3417,-2.3488,-2.3519,-2.3191,-2.3191,-2.3191,0,0,-2.3087,-2.3074,-2.311,-2.3141,-2.3141,-2.3196,-2.3073,-2.3136,-2.3177,-2.3067,-2.3154,-2.3143,-2.3147,-2.3261,-2.331,-2.3258,-2.3507,-2.3418,-2.3435,-2.344,-2.3506,-2.3537,-2.3564,-2.3201,-2.3199,-2.3197,0,0,-2.3292,-2.3286,-2.3373,-2.3375,-2.3376,-2.3344,-2.3365,-2.3348,-2.3336,-2.3422,-2.3341,-2.3389,-2.3464,-2.3471,-2.3484,-2.3692,-2.3629,-2.3706,-2.3835,-2.3905,-2.3931,-2.3953,-2.403,-2.4058,-2.3721,-2.3722,-2.3722,0,-2.3413,-2.3491,-2.3426,-2.3495,-2.3512,-2.3413,-2.3502,-2.3507,-2.3521,-2.3536,-2.3477,-2.3569,-2.3565,-2.368,-2.3731,-2.3744,-2.3768,-2.3708,-2.3932,-2.3954,-2.3974,-2.4046,-2.4075,-2.3731,-2.373,-2.3729,-2.3728,0,-2.364,-2.3696,-2.3766,-2.3781,-2.3806,-2.3885,-2.3833,-2.3866,-2.3821,-2.3796,-2.3885,-2.3877,-2.3911,-2.3934,-2.3891,-2.4044,-2.4012,-2.3944,-2.384,-2.4016,-2.4083,-2.411,-2.3745,-2.3741,-2.3739,-2.3736,0,0,-2.3942,-2.3919,-2.3946,-2.3952,-2.3945,-2.3988,-2.4062,-2.4094,-2.4125,-2.4138,-2.42,-2.4265,-2.4202,-2.4218,-2.4174,-2.4235,-2.4403,-2.4159,-2.4158,-2.4207,-2.4573,-2.4627,-2.466,-2.436,-2.4365,-2.4369,-2.4574,0,-2.4142,-2.4267,-2.4211,-2.4343,-2.4395,-2.4302,-2.4367,-2.4371,-2.4349,-2.4391,-2.4367,-2.4415,-2.4327,-2.4336,-2.4392,-2.4371,-2.4476,-2.4354,-2.442,-2.4423,-2.4425,-2.4694,-2.4751,-2.4945,-2.4599,-2.4604,-2.4607,0,-2.4393,-2.4415,-2.4552,-2.4537,-2.4556,-2.4616,-2.4642,-2.4682,-2.4685,-2.4665,-2.4682,-2.4624,-2.4698,-2.4593,-2.4695,-2.4614,-2.4637,-2.4631,-2.4637,-2.4644,-2.4528,-2.4711,-2.5005,-2.5036,-2.4647,-2.4644,-2.4641,0,-2.4603,-2.4666,-2.4757,-2.4764,-2.4748,-2.4793,-2.4788,-2.4785,-2.4809,-2.4831,-2.4846,-2.4878,-2.4896,-2.4922,-2.4876,-2.4803,-2.4986,-2.4876,-2.4973,-2.4975,-2.5018,-2.5017,-2.5324,-2.5029,-2.5029,-2.5028,-2.5027,0,-2.4834,-2.4922,-2.4851,-2.4907,-2.5004,-2.4938,-2.5036,-2.5022,-2.502,-2.5073,-2.4993,-2.5045,-2.4978,-2.5024,-2.4988,-2.508,-2.5088,-2.5075,-2.5065,-2.5084,-2.5086,-2.5101,-2.5087,-2.5036,-2.5034,-2.5032,-2.5031,0,-2.5086,-2.5041,-2.5134,-2.511,-2.5106,-2.5179,-2.516,-2.5212,-2.5183,-2.5252,-2.5264,-2.5221,-2.5271,-2.5226,-2.5274,-2.5249,-2.5372,-2.5341,-2.5372,-2.5364,-2.5465,-2.5458,-2.5795,-2.5837,-2.5512,-2.5515,-2.5518,0,-2.5238,-2.5303,-2.5287,-2.5316,-2.5316,-2.5364,-2.5387,-2.5325,-2.5353,-2.5361,-2.5413,-2.5456,-2.5487,-2.5571,-2.5546,-2.5582,-2.5553,-2.5669,-2.5558,-2.5576,-2.5558,-2.5557,-2.5564,-2.5692,-2.5696,-2.5699,-2.5702,0,-2.5513,-2.5488,-2.5523,-2.5552,-2.5582,-2.5602,-2.5616,-2.5644,-2.5581,-2.5617,-2.5666,-2.569,-2.5738,-2.5783,-2.5811,-2.5808,-2.5747,-2.5736,-2.5761,-2.5783,-2.5799,-2.5795,-2.5436,-2.573,-2.5727,-2.5725,-2.5723,-2.5722,-2.5721,-2.5776,-2.5773,-2.5816,-2.5819,-2.5834,-2.5882,-2.586,-2.5899,-2.5933,-2.5894,-2.5956,-2.5958,-2.5989,-2.5993,-2.6041,-2.5993,-2.6029,-2.6039,-2.6049,-2.6065,-2.5789,-2.6046,-2.6045,-2.6044,-2.6044,-2.6043,0,-2.5995,-2.5988,-2.6028,-2.605,-2.6084,-2.602,-2.6032,-2.6066,-2.612,-2.6126,-2.6158,-2.6216,-2.6258,-2.6236,-2.6273,-2.6316,-2.6289,-2.6328,-2.6326,-2.6327,-2.6105,-2.6081,-2.635,-2.635,-2.635,-2.635,-2.635,-2.635,-2.6142,-2.6232,-2.6206,-2.6297,-2.6289,-2.6348,-2.6361,-2.6375,-2.6379,-2.6447,-2.6482,-2.6466,-2.6461,-2.6497,-2.6534,-2.6527,-2.6546,-2.6596,-2.6579,-2.6372,-2.6342,-2.6314,-2.6291,-2.66,-2.66,-2.6798,-2.6799,-2.6801]}]]